#timestamp,LO_Frequency,Hit,StdDev 
1521176415.5,286046997.0,N
1521176465.4,286046995.3,E
1521176475.3,286046999.0,N
1521176495.2,286047004.0,P
1521176515.0,286047003.0,N
1521176515.9,286047003.0,N
1521176535.8,286047005.6,N
1521176555.6,286047003.5,N
1521176605.5,286047001.4,E
1521176615.4,286047002.0,N
1521176635.2,286047000.5,P
1521176655.0,286046998.7,N
1521176656.0,286046998.7,N
1521176675.8,286046998.7,N
1521176695.6,286046998.2,N
1521176715.5,286046998.8,N
1521176735.3,286046998.5,N
1521176755.1,286046999.3,N
1521176775.9,286046999.5,N
1521176795.7,286046997.0,N
1521176815.6,286046997.7,N
1521176835.4,286046997.2,N
1521176855.2,286046997.8,N
1521176875.1,286046995.7,Y
1521176876.0,286046995.7,P
1521176895.8,286046997.7,N
1521176915.7,286046994.9,P
1521176935.5,286046997.3,N
1521176955.3,286046999.2,N
1521176975.2,286046998.5,N
1521176995.9,286046999.7,N
1521177015.7,286047003.4,N
1521177035.6,286047003.9,N
1521177055.4,286047002.7,N
1521177075.3,286047002.3,N
1521177095.1,286047000.4,N
1521177115.8,286046999.7,N
1521177135.7,286046999.8,N
1521177155.5,286046998.5,N
1521177175.4,286046999.4,N
1521177195.2,286046999.4,N
1521177215.0,286046997.0,N
1521177215.9,286046997.0,N
1521177235.8,286046996.6,N
1521177255.6,286046996.5,N
1521177275.5,286046994.9,N
1521177295.3,286046997.2,N
1521177315.1,286046997.2,N
1521177335.9,286046999.3,N
1521177355.7,286046998.9,N
1521177375.5,286046997.4,N
1521177395.4,286046999.2,N
1521177415.2,286046997.3,N
1521177435.1,286046997.0,N
1521177436.0,286046997.0,N
1521177455.8,286046997.7,N
1521177475.6,286046997.3,N
1521177495.5,286046997.5,N
1521177515.3,286046998.0,N
1521177535.2,286046995.6,N
1521177555.9,286046996.2,N
1521177575.7,286046993.4,N
1521177595.6,286046993.6,N
1521177615.4,286046993.8,N
1521177635.2,286046993.5,Y
1521177655.1,286046999.1,P
1521177656.0,286046999.1,N
1521177675.8,286047000.8,N
1521177695.7,286047000.3,N
1521177715.5,286047000.7,N
1521177735.3,286047000.2,N
1521177755.2,286046999.7,N
1521177775.0,286047000.4,N
1521177775.9,286047000.4,N
1521177795.7,286046998.1,N
1521177815.6,286047000.0,N
1521177835.4,286047000.3,N
1521177855.3,286047000.3,N
1521177875.1,286046998.7,N
1521177895.9,286046998.4,N
1521177915.7,286047001.1,N
1521177935.5,286047000.6,N
1521177955.4,286047001.6,N
1521177975.2,286047004.4,Y
1521177995.1,286047001.4,P
1521177996.0,286047001.4,N
1521178015.8,286047003.9,P
1521178035.6,286047001.5,N
1521178055.5,286047004.0,Y
1521178075.3,286047001.6,P
1521178095.2,286047002.6,P
1521178115.9,286047002.1,P
1521178135.7,286047001.6,Y
1521178155.6,286047001.0,P
1521178175.4,286047002.1,P
1521178195.3,286047002.3,P
1521178215.1,286047002.8,Y
1521178216.0,286047002.8,P
1521178235.8,286047000.4,N
1521178255.7,286047002.8,N
1521178275.5,286047002.6,N
1521178295.3,286046999.9,N
1521178315.2,286046998.9,N
1521178335.0,286046999.0,N
1521178335.9,286046999.0,N
1521178355.8,286046998.7,N
1521178375.6,286046998.3,N
1521178395.4,286046998.5,N
1521178415.3,286046999.7,N
1521178435.1,286046999.8,N
1521178455.9,286047001.8,N
1521178475.7,286047001.9,N
1521178495.5,286047001.9,N
1521178515.4,286047002.0,N
1521178535.2,286047002.3,N
1521178555.1,286047001.6,N
1521178556.0,286047001.6,N
1521178575.8,286047002.0,N
1521178595.6,286047002.1,N
1521178615.5,286047002.4,N
1521178635.3,286047000.2,N
1521178655.1,286047002.5,N
1521178675.9,286047001.8,N
1521178695.7,286047001.7,N
1521178715.6,286047006.0,Y
1521178735.4,286047004.2,P
1521178755.2,286047004.4,N
1521178775.1,286047006.0,P
1521178776.0,286047006.0,Y
1521178795.8,286047001.1,P
1521178815.7,286047000.8,N
1521178835.5,286046998.8,N
1521178855.3,286046998.3,N
1521178875.2,286047000.5,N
1521178895.0,286046998.4,N
1521178895.9,286046998.4,N
1521178915.7,286046998.8,N
1521178935.6,286046998.6,N
1521178955.4,286046999.3,N
1521178975.3,286046998.8,N
1521178995.1,286046999.5,N
1521179015.9,286046999.3,N
1521179035.7,286046996.7,N
1521179055.5,286046999.3,N
1521179075.4,286046997.0,N
1521179095.2,286046998.8,N
1521179115.0,286046996.5,N
1521179115.9,286046996.5,N
1521179135.8,286046998.9,N
1521179155.6,286047000.4,N
1521179175.5,286047000.9,N
1521179195.3,286047000.2,N
1521179215.1,286047000.9,N
1521179235.9,286047000.3,N
1521179255.7,286046998.4,N
1521179275.5,286046998.3,N
1521179295.4,286046999.0,N
1521179315.2,286046998.9,N
1521179335.1,286046999.3,N
1521179336.0,286046999.3,N
1521179355.8,286046998.8,N
1521179375.6,286046998.9,N
1521179395.5,286047000.8,N
1521179415.3,286047001.2,N
1521179435.2,286046998.6,N
1521179455.9,286046999.3,N
1521179475.7,286046998.8,N
1521179495.6,286047000.8,N
1521179515.4,286047000.8,N
1521179535.2,286046998.4,N
1521179555.1,286047001.2,N
1521179556.0,286047001.2,N
1521179575.8,286046998.5,N
1521179595.7,286046998.5,N
1521179615.5,286047000.8,N
1521179635.3,286047001.2,N
1521179655.2,286046998.9,N
1521179675.0,286046999.5,N
1521179675.9,286046999.5,N
1521179695.8,286046998.1,N
1521179715.6,286046999.4,N
1521179735.4,286047001.0,N
1521179755.3,286047000.0,N
1521179775.1,286047001.0,N
1521179795.8,286046998.1,N
1521179815.7,286046998.6,N
1521179835.5,286046998.2,N
1521179855.3,286047000.6,N
1521179875.2,286047002.7,N
1521179895.0,286047002.3,N
1521179895.9,286047002.3,N
1521179915.8,286046999.9,N
1521179935.6,286046999.7,N
1521179955.4,286047000.7,N
1521179975.3,286047000.5,N
1521179995.1,286046999.9,N
